GFSMW_sfc_rhum_021.txt.gz
RH
29 35 37 37 35 41 47 66 71 73 72 55 53 52 47 42 38 34 38 38 37 37 40 35 37 40 42 45 46 45 48 36 34 34 36 34 36 34 26 24 27 32 28
33 38 41 42 43 46 50 63 60 63 54 43 40 39 39 34 32 35 40 36 37 36 34 43 42 42 42 44 43 44 44 38 36 40 40 41 32 26 28 28 28 37 27
35 41 44 46 49 53 58 55 53 49 40 39 38 38 37 38 34 35 33 36 39 37 39 41 42 43 40 36 42 43 48 42 38 39 39 43 40 37 31 32 28 38 30
32 40 44 48 51 52 49 43 42 39 41 35 31 34 31 34 38 36 36 35 38 40 37 36 40 42 40 43 42 33 45 46 42 39 33 40 42 43 40 28 27 27 26
37 40 43 42 42 43 42 41 39 33 33 35 38 36 39 38 35 36 36 34 30 27 25 26 32 42 42 44 46 48 47 43 47 43 45 38 35 34 34 35 29 25 23
38 33 33 35 38 39 41 40 34 34 36 38 41 43 41 36 32 30 26 24 23 22 25 25 32 36 41 45 44 46 48 52 50 40 39 37 34 33 34 35 37 35 28
33 29 31 31 35 40 41 38 35 37 38 37 35 36 35 30 29 26 24 27 24 25 28 33 37 36 38 41 44 50 56 60 46 43 39 34 35 35 36 36 38 37 32
30 28 28 30 34 39 38 36 35 35 33 33 30 29 30 32 27 26 28 27 27 28 31 34 38 42 40 42 58 52 62 56 52 47 44 42 39 38 38 39 46 50 42
28 28 29 32 35 38 39 40 35 30 29 30 35 36 41 30 30 31 32 29 30 26 30 35 38 40 42 48 62 62 62 51 49 58 52 46 42 40 40 38 37 52 69
27 28 29 35 36 37 41 40 32 29 32 35 37 41 36 28 30 32 32 31 32 33 34 36 36 38 40 55 53 51 50 53 57 56 46 41 42 46 40 35 38 38 54
29 30 33 34 36 37 38 35 29 32 35 33 37 42 30 30 31 32 32 31 34 33 33 34 37 38 38 38 43 48 53 55 56 52 42 46 45 45 40 41 37 38 40
26 29 33 36 36 39 35 31 32 34 32 30 31 29 29 27 29 32 32 32 34 34 33 35 36 35 35 39 45 51 55 54 47 42 45 47 36 45 43 37 39 38 38
27 29 33 36 36 38 34 31 34 34 29 30 27 25 28 28 30 32 32 32 33 35 35 35 38 38 45 54 44 39 40 41 44 47 44 46 47 47 39 40 41 39 33
28 30 34 35 36 37 32 31 35 36 37 29 21 24 27 30 32 32 33 35 34 37 36 37 37 40 39 40 44 45 45 46 44 49 49 46 43 41 47 43 44 42 49
30 33 36 34 34 35 32 30 36 42 34 25 23 26 27 30 32 34 34 36 38 37 35 37 38 38 45 46 50 47 49 47 49 46 41 37 43 47 50 45 50 51 51
30 33 34 32 33 32 31 30 42 38 31 28 28 27 28 30 34 33 37 37 36 35 37 38 39 42 46 81 72 61 45 43 46 44 37 36 45 47 55 56 59 59 58
30 33 33 33 32 30 30 30 37 30 30 28 26 27 29 31 32 30 29 32 36 39 40 40 43 48 53 79 70 62 44 44 43 41 39 36 29 46 43 54 59 61 67
29 31 31 33 32 30 28 35 27 29 29 28 29 29 30 26 27 29 30 34 38 41 42 42 43 46 54 75 64 62 51 46 45 43 42 42 42 48 59 55 53 45 40
28 30 30 31 32 30 29 29 30 26 31 31 27 24 26 29 30 30 33 37 40 43 42 39 42 45 56 71 65 60 52 51 49 45 43 42 41 62 65 59 57 48 44
27 30 30 32 32 31 28 28 36 39 28 26 25 26 27 28 30 34 39 40 43 42 37 38 41 61 57 70 63 58 59 61 57 50 45 54 53 62 62 67 64 68 50
28 31 33 34 33 27 33 37 34 38 25 28 28 28 29 31 35 39 40 44 45 46 54 56 56 54 59 63 66 61 63 65 62 56 51 49 61 60 63 64 65 71 60
33 34 34 30 31 31 46 55 44 26 31 36 36 35 34 37 38 44 46 46 46 53 58 81 66 65 59 71 69 66 67 66 74 68 59 65 68 63 63 60 56 62 67
32 30 29 38 55 66 61 34 30 38 41 44 43 40 41 42 44 48 52 52 49 55 58 62 73 66 63 67 73 73 69 71 80 69 67 69 67 60 58 51 55 68 59
28 32 51 73 79 52 32 35 44 49 46 46 44 46 50 49 47 44 47 55 58 60 62 63 63 59 51 53 64 75 74 78 78 76 69 68 72 70 71 64 54 54 56
57 70 70 55 42 41 46 48 49 49 48 53 54 55 64 60 53 47 52 60 58 65 62 64 67 90 86 65 71 73 76 79 76 77 75 68 64 62 58 56 55 57 56
61 56 61 54 48 54 53 51 54 62 67 66 65 69 63 57 53 52 55 70 77 80 72 76 81 90 79 81 77 76 73 67 73 72 72 76 82 75 66 62 60 59 60

GFSMW_sfc_rhum_024.txt.gz
RH
31 33 38 38 38 51 65 69 84 89 77 86 82 69 73 64 62 51 55 54 53 51 56 64 64 64 66 69 64 65 66 67 63 60 57 56 50 51 43 47 46 46 33
31 38 40 45 48 54 69 77 80 84 73 71 66 60 57 59 52 56 56 53 54 52 51 61 62 65 65 64 66 67 70 67 66 68 61 64 55 49 46 51 45 47 46
36 40 44 50 55 69 72 70 70 70 66 62 51 52 51 57 53 56 56 55 53 51 53 56 60 63 63 65 68 66 67 71 66 62 69 70 70 60 56 48 48 49 53
32 38 44 50 75 72 74 65 63 58 52 53 54 56 51 54 58 59 59 54 52 50 43 45 54 61 66 68 69 53 70 68 70 65 52 64 66 64 58 50 46 45 37
32 40 44 58 61 63 65 60 54 49 48 49 55 57 59 60 58 58 51 46 48 42 39 44 56 59 62 66 69 71 68 68 70 72 68 63 63 58 61 54 52 45 45
36 38 43 48 50 54 58 59 47 43 48 53 59 62 61 55 51 50 50 44 44 44 47 46 56 59 62 64 69 68 66 70 79 77 66 63 62 57 62 62 57 54 50
40 43 45 45 48 54 56 52 43 46 52 55 53 55 50 52 54 50 47 44 46 48 51 52 57 60 63 64 68 72 70 77 84 74 67 62 62 58 59 65 62 64 55
43 39 42 44 46 50 49 46 43 46 46 48 46 47 47 50 49 48 42 46 47 50 49 54 55 57 59 64 67 74 76 80 84 75 74 68 68 61 61 64 73 72 61
37 35 36 41 44 47 51 52 45 42 42 44 50 53 52 51 52 46 45 50 48 37 50 54 55 56 59 63 64 82 82 83 83 80 75 77 71 67 68 70 64 74 77
33 32 32 41 42 46 51 55 48 41 41 45 54 49 49 50 49 48 47 44 48 48 52 53 54 55 57 59 64 71 68 72 80 76 78 80 70 65 72 68 66 60 68
33 32 32 37 41 45 47 51 43 37 41 46 50 54 50 48 46 48 46 45 48 48 48 49 51 52 54 56 60 64 65 69 75 76 79 79 66 71 68 70 63 61 60
32 31 33 38 41 44 46 47 43 38 44 44 45 47 48 42 48 46 44 46 47 49 48 49 49 50 51 58 65 68 63 66 69 64 65 64 47 65 65 65 62 62 55
31 31 34 38 40 43 47 44 42 42 41 38 38 39 44 43 45 43 46 45 48 48 50 49 54 53 56 57 60 61 61 62 62 65 67 64 63 68 66 67 62 59 49
29 29 34 38 41 43 46 42 41 46 40 39 39 38 45 47 44 45 47 48 50 50 52 53 53 57 51 49 54 53 60 64 62 65 64 62 60 61 62 54 63 56 69
26 28 34 39 40 44 45 40 41 44 47 47 39 43 41 40 43 48 49 50 53 49 51 50 54 56 53 53 64 60 64 67 64 63 56 54 53 50 55 51 66 72 76
21 26 32 38 40 40 43 40 40 45 50 48 43 38 39 39 46 49 51 53 53 51 51 52 54 61 50 78 71 63 62 61 61 63 57 53 54 62 62 62 61 66 79
25 28 36 38 42 39 42 42 39 48 51 43 38 38 40 42 48 41 39 42 50 54 56 57 55 57 74 78 68 64 57 64 66 63 60 52 37 69 67 64 61 63 63
28 31 34 38 39 38 38 40 34 43 44 39 37 41 41 38 38 43 42 48 52 57 60 61 58 58 68 79 69 65 63 70 65 63 62 61 60 78 69 73 71 65 59
29 30 32 36 38 38 38 36 40 37 36 43 46 43 36 37 40 41 48 52 55 59 62 56 56 59 77 79 70 62 73 77 70 61 61 59 58 68 62 73 74 68 62
26 28 32 34 38 40 36 39 41 49 52 47 40 39 36 42 46 49 54 56 57 55 58 56 64 66 84 78 69 63 90 83 88 74 66 64 65 59 61 83 85 85 73
29 33 37 38 35 36 41 50 58 61 60 54 42 42 46 47 48 53 55 59 61 64 74 70 72 68 80 83 71 66 80 92 92 86 84 84 65 68 65 61 83 84 70
35 34 39 49 56 58 63 67 64 51 52 47 50 51 52 47 42 60 63 64 65 76 76 86 85 90 80 79 78 71 72 72 90 88 89 90 69 68 66 66 64 60 75
35 35 57 72 70 66 63 62 53 45 51 60 65 61 53 49 52 60 63 66 72 79 86 91 93 94 93 92 82 79 77 76 91 92 85 74 72 74 75 68 64 75 88
40 59 68 68 65 53 51 52 56 56 62 67 62 55 63 61 62 59 61 66 88 88 87 90 91 92 91 92 94 90 90 84 87 85 87 88 84 84 82 87 83 89 91
64 60 61 69 75 65 57 52 57 61 60 57 62 69 82 76 71 62 63 81 73 78 78 82 91 95 96 93 83 90 96 96 93 91 92 93 91 91 90 90 86 87 86
69 70 69 63 62 61 55 54 55 62 72 75 78 88 89 85 72 65 69 68 77 78 80 80 83 96 87 80 76 77 78 77 80 92 95 95 94 94 93 92 92 90 86

GFSMW_sfc_rhum_027.txt.gz
RH
43 39 39 46 54 68 74 84 86 92 93 97 98 95 91 84 76 67 63 62 59 59 68 71 72 72 71 70 68 72 70 70 74 71 65 60 61 49 58 57 54 48 47
44 46 49 58 65 71 90 88 89 89 90 92 89 84 81 77 67 66 62 61 60 60 60 66 68 64 65 65 70 70 74 77 74 69 75 76 67 63 55 60 50 51 54
49 52 53 65 82 87 93 92 88 84 83 84 78 71 64 68 69 68 67 63 59 56 58 60 63 64 67 70 72 74 74 76 70 69 72 80 84 75 62 49 50 52 53
47 51 58 69 89 90 91 91 87 83 80 81 62 53 55 62 73 74 69 64 62 52 46 53 58 62 71 72 78 66 75 76 76 73 64 68 75 72 73 60 52 52 44
49 55 61 84 85 83 85 76 84 79 65 56 53 69 67 69 71 68 58 45 46 44 44 54 57 60 69 70 73 76 78 76 78 84 80 71 68 66 67 70 62 57 53
53 58 72 72 76 79 87 82 60 54 64 66 68 68 67 57 53 52 51 44 47 54 51 47 57 60 66 70 75 80 76 84 87 84 81 77 68 64 69 72 72 69 64
57 69 71 71 67 68 57 50 58 66 60 57 54 56 51 50 49 51 51 45 49 53 52 52 59 61 66 69 75 75 78 83 86 86 82 74 69 67 66 73 75 77 72
62 63 64 68 70 64 59 58 60 60 56 59 50 50 51 58 56 53 50 52 50 52 53 53 57 58 61 66 74 79 81 84 89 86 84 85 77 73 72 70 78 84 77
60 60 60 62 64 64 62 63 61 55 58 53 54 54 54 54 57 50 50 52 52 41 52 53 56 58 60 60 68 80 86 88 90 88 81 80 80 83 79 76 73 82 93
52 54 56 60 59 62 64 66 60 54 54 57 59 54 52 56 54 53 51 49 52 48 51 54 56 58 59 61 65 76 74 76 85 84 86 87 82 81 83 75 73 75 84
46 48 52 54 55 59 63 66 59 53 55 60 58 58 55 56 54 53 51 48 49 49 50 51 54 54 58 63 67 73 68 72 77 76 85 86 84 87 82 74 74 72 71
42 43 47 52 55 58 59 65 54 48 57 59 57 57 57 52 49 52 49 51 51 50 50 52 53 57 60 62 66 69 70 67 68 70 70 70 55 71 74 74 68 66 69
43 42 46 49 54 57 58 61 48 49 55 49 51 52 51 48 49 48 49 51 52 52 52 50 56 58 62 62 66 64 63 65 67 72 73 70 68 73 73 67 68 70 57
41 40 44 47 52 53 57 56 52 54 49 46 50 49 51 48 48 49 50 52 51 54 53 54 58 61 60 59 59 63 69 70 68 68 68 67 64 60 61 56 63 62 76
38 46 46 50 50 58 59 57 60 55 50 54 50 48 50 53 50 52 52 54 54 51 52 55 58 59 64 58 66 60 64 65 67 69 62 60 54 53 56 55 68 76 81
30 34 50 55 53 58 62 58 55 56 53 54 54 49 48 49 55 53 51 52 55 54 57 57 59 67 55 77 70 63 61 61 65 68 65 59 62 65 65 64 63 70 85
36 39 48 56 57 61 58 57 54 57 59 60 54 52 53 51 53 47 46 48 49 55 58 61 60 62 73 78 70 66 60 63 74 70 65 58 59 71 68 65 63 65 62
37 37 41 47 58 64 60 50 48 55 56 49 51 50 52 50 48 46 49 56 60 59 61 64 63 68 70 81 74 68 63 72 74 68 66 66 75 75 70 73 75 74 71
36 37 42 49 55 56 51 45 47 53 56 55 46 45 48 49 56 61 67 67 62 63 65 62 65 71 81 81 74 66 75 78 77 71 69 69 72 65 60 74 77 78 74
47 44 43 47 50 53 49 55 61 64 64 58 56 56 62 63 64 72 69 62 59 62 64 58 66 76 83 82 76 69 94 83 92 80 74 67 69 61 62 86 85 90 74
50 59 65 70 68 64 66 71 72 74 66 64 69 70 62 67 67 63 61 66 69 75 84 85 78 79 87 87 79 75 84 90 94 90 91 85 67 68 67 66 86 88 77
68 69 75 76 70 63 63 69 75 68 74 73 70 66 68 63 55 64 67 68 72 83 88 90 89 93 88 85 83 80 78 79 91 88 92 94 74 68 70 75 74 71 78
79 70 66 62 58 54 64 66 63 70 70 70 75 73 70 65 61 65 70 76 80 92 92 96 94 92 94 95 86 83 81 80 92 93 87 81 74 74 83 80 80 83 91
70 64 64 66 71 64 62 68 66 68 73 76 76 76 74 74 76 76 78 82 96 96 96 96 98 98 98 94 97 91 89 87 88 87 90 94 94 95 89 89 84 93 94
64 71 76 81 80 73 69 65 69 70 74 73 75 81 90 87 90 87 86 89 83 86 89 91 92 95 99 98 92 90 94 95 90 97 98 98 97 94 92 94 92 94 95
78 75 79 76 74 72 71 67 67 72 80 87 91 94 96 93 90 89 88 82 82 85 86 85 86 84 87 89 91 98 92 89 95 98 99 97 97 96 95 94 93 96 93

GFSMW_sfc_rhum_030.txt.gz
RH
50 52 68 69 68 71 83 89 92 93 90 95 98 98 97 94 90 80 69 66 67 69 73 78 73 71 67 68 70 72 71 72 77 68 67 66 65 62 64 58 54 50 50
46 51 62 66 68 75 82 89 88 90 82 90 96 92 92 85 77 73 69 66 68 68 68 72 69 66 65 67 70 73 75 83 75 70 80 76 72 66 56 55 54 53 52
43 48 59 66 73 77 91 90 92 88 82 81 93 84 76 75 73 74 72 69 65 63 65 68 70 73 74 74 74 75 76 76 76 75 72 80 84 80 68 55 56 53 55
42 54 58 73 79 92 93 92 91 88 86 90 89 79 70 63 75 75 73 71 67 56 55 58 62 65 69 68 77 74 81 83 80 78 68 73 73 74 78 64 57 56 48
47 56 74 82 82 93 96 95 92 88 88 91 82 74 72 75 80 79 71 52 53 56 55 57 60 67 74 72 74 79 86 84 83 87 85 79 75 73 75 72 64 63 60
62 66 85 86 94 92 94 95 95 92 85 90 73 69 74 76 70 63 54 56 61 61 55 56 63 64 68 74 78 83 81 86 88 88 79 76 72 69 72 78 77 76 68
70 84 91 94 95 95 94 93 75 70 73 76 76 72 63 56 50 54 55 57 54 55 51 58 58 63 66 69 78 80 82 86 89 87 87 82 76 73 71 76 81 81 76
69 77 84 88 92 90 87 76 64 63 60 57 58 50 49 53 56 55 53 55 55 57 54 55 58 60 61 63 68 80 86 87 91 88 91 88 85 79 75 83 97 98 82
84 79 80 82 83 76 70 66 59 55 56 62 50 56 59 58 57 52 54 58 56 50 55 57 58 57 59 62 69 79 85 90 90 88 89 89 86 90 91 91 94 99 98
76 74 73 73 68 68 73 74 59 56 58 62 62 52 53 56 55 57 54 53 53 51 52 53 53 55 58 63 69 75 75 78 85 86 87 90 92 88 89 88 77 78 86
69 69 68 65 61 60 65 64 59 55 61 54 59 56 55 58 57 55 54 52 52 50 52 55 53 54 58 63 70 74 72 71 79 77 84 89 88 93 94 87 74 68 66
61 62 63 64 64 63 67 63 59 52 49 54 60 60 60 60 55 55 52 57 53 55 56 57 54 55 57 62 70 76 70 65 67 71 72 72 67 73 75 72 65 65 67
56 57 61 62 62 62 63 62 59 53 55 61 58 60 56 55 51 55 59 60 58 57 58 56 56 58 61 62 65 73 72 69 70 71 73 71 70 72 71 67 66 70 58
52 51 56 58 58 59 60 66 60 60 61 55 54 56 53 54 57 57 61 63 60 58 59 59 60 64 63 61 62 66 70 71 71 73 70 68 67 63 64 61 64 65 76
56 56 54 56 62 66 71 64 61 65 58 57 54 53 54 57 58 65 62 63 63 57 58 62 64 66 65 65 69 65 69 68 67 68 58 60 58 58 60 59 70 76 81
39 46 52 60 63 66 71 70 63 64 60 53 52 54 58 60 64 63 62 56 52 50 56 60 68 68 63 74 80 71 68 63 65 68 64 60 61 66 67 66 66 68 79
47 57 62 62 66 68 69 68 67 63 58 60 60 60 58 55 58 54 51 54 60 60 61 66 68 69 73 83 76 72 63 66 73 73 66 60 61 71 67 63 61 63 58
42 49 57 67 69 74 71 67 68 73 63 57 56 55 60 58 60 63 71 77 72 66 66 67 69 71 73 84 79 72 67 70 75 73 69 70 71 74 70 71 72 70 70
56 57 60 59 59 61 60 61 61 55 53 55 59 60 67 70 80 84 85 78 74 67 68 67 73 72 82 84 79 71 71 77 77 73 72 72 74 72 64 73 75 74 72
63 65 66 65 66 66 62 65 70 72 74 72 70 75 82 84 86 87 78 70 65 68 73 74 75 76 82 86 81 73 89 83 89 83 75 68 71 70 66 86 86 89 70
69 67 67 70 70 69 68 77 76 79 80 85 86 87 88 86 76 77 71 72 74 77 83 87 89 88 86 88 83 80 82 84 88 89 87 84 71 69 71 70 88 88 75
74 70 72 72 66 68 71 78 81 77 80 87 89 83 73 69 66 77 74 74 78 83 85 92 91 94 90 86 85 83 79 79 88 88 87 91 75 74 75 77 79 78 87
70 61 60 63 66 70 73 78 80 79 79 79 79 78 78 78 77 77 78 81 84 94 90 95 96 95 96 94 88 87 85 82 88 86 83 80 79 80 83 81 81 87 96
65 60 65 75 79 69 69 75 75 74 75 78 80 82 84 83 86 86 88 91 96 94 93 94 93 93 95 97 98 98 96 89 88 86 85 90 94 95 94 95 86 94 96
74 77 81 79 76 76 74 72 73 74 76 78 83 87 94 90 92 91 93 94 89 91 93 92 93 94 93 90 90 95 97 97 97 95 98 98 98 96 96 96 94 95 96
76 75 76 76 79 76 74 72 73 76 81 85 90 94 95 95 93 93 90 85 86 85 88 88 89 89 88 84 85 91 96 94 96 97 97 96 97 97 95 94 95 97 95

GFSMW_sfc_rhum_033.txt.gz
RH
67 72 74 74 83 88 93 94 94 96 90 95 97 98 97 97 95 90 72 73 79 76 77 79 76 75 70 72 69 74 72 78 77 70 70 71 69 65 63 58 54 50 50
74 74 78 81 85 83 89 93 91 95 85 89 97 96 97 95 90 82 74 72 74 74 73 74 74 72 73 73 76 75 79 85 77 75 82 77 71 69 63 61 54 53 54
70 70 78 83 82 82 87 89 91 92 84 88 96 95 84 82 78 78 77 73 72 69 72 74 77 77 77 78 81 81 78 77 76 76 73 82 84 84 71 62 57 54 59
55 59 71 81 80 79 83 86 89 91 85 90 92 90 90 84 78 79 77 76 71 67 60 62 67 71 74 73 76 76 85 86 83 83 73 76 77 79 80 68 61 60 52
47 55 66 72 73 83 93 93 94 91 86 87 91 95 90 80 83 82 80 59 65 62 58 62 65 67 76 76 77 83 86 91 87 86 89 86 84 79 81 81 67 65 64
60 69 65 73 78 95 96 97 96 94 94 92 95 94 87 82 78 80 66 66 68 64 64 58 64 64 68 67 79 83 82 86 89 91 91 88 85 79 73 77 80 78 71
66 86 89 86 92 97 96 97 94 96 96 96 92 85 80 76 70 65 61 65 64 61 60 58 62 64 60 60 69 81 82 86 91 89 90 88 83 79 77 80 85 86 80
61 82 88 92 94 95 95 95 96 89 85 93 87 82 81 87 83 75 60 55 57 58 57 59 60 57 56 58 67 75 79 89 93 90 92 93 91 86 81 86 95 95 87
80 88 91 93 96 95 96 95 86 78 76 78 70 70 72 69 70 66 54 56 60 54 58 58 57 58 58 62 69 80 81 92 92 92 90 91 90 91 93 94 94 100 96
92 93 93 96 96 95 90 87 71 65 65 63 61 59 54 53 52 52 54 53 55 58 58 58 56 58 58 62 70 76 76 76 84 86 87 89 93 95 96 95 91 98 99
89 86 84 86 86 80 78 74 64 59 62 60 59 64 62 64 56 49 49 49 54 54 54 56 59 58 60 62 69 72 76 78 80 83 84 87 90 95 95 95 82 78 79
81 80 81 81 75 75 74 69 62 56 59 68 72 69 63 58 53 52 52 57 51 56 59 61 61 61 61 62 69 73 73 77 74 75 77 78 78 91 83 80 71 70 69
78 81 82 76 70 68 69 69 71 74 70 70 66 61 62 55 52 54 55 59 63 62 62 63 62 62 63 63 68 73 78 78 75 76 76 75 75 78 81 74 72 71 59
67 75 79 77 72 68 73 79 83 73 68 62 62 65 60 55 52 53 58 61 62 62 62 61 62 65 65 66 67 72 77 77 77 78 79 76 76 77 72 67 67 64 75
67 67 73 77 77 86 85 83 80 76 74 67 64 64 57 59 60 66 66 68 64 61 60 60 64 68 68 65 74 72 76 77 76 75 70 68 62 59 63 62 67 75 82
60 61 61 67 75 78 84 79 75 74 70 69 71 68 67 70 70 67 64 63 64 63 62 66 69 72 64 74 82 78 78 72 73 72 69 62 63 68 68 65 70 75 82
56 61 66 65 71 78 79 76 76 77 74 67 68 67 62 60 62 61 66 72 78 82 79 71 66 69 73 79 84 83 76 74 74 75 69 62 57 73 78 72 66 64 64
62 63 68 77 84 85 81 78 72 73 69 68 65 63 65 68 70 74 81 90 90 88 82 73 72 74 72 81 84 84 72 72 72 77 73 71 70 77 71 72 74 70 69
68 72 71 72 71 69 66 60 60 62 66 66 70 72 78 83 87 90 93 91 89 82 72 72 78 80 80 84 86 84 74 74 75 76 74 73 74 72 72 78 76 76 72
72 74 74 72 72 71 68 69 70 71 76 75 80 87 89 91 92 93 92 86 73 69 77 77 81 84 88 82 87 85 86 82 84 84 81 78 74 72 74 86 88 93 76
74 72 76 80 78 73 72 78 79 86 89 91 92 92 91 91 90 86 81 80 80 82 84 85 86 85 87 88 84 87 82 81 82 83 86 82 77 74 73 72 91 91 77
74 72 77 81 82 81 79 82 88 84 87 89 90 88 84 75 70 82 85 80 83 86 87 91 91 92 86 86 88 87 86 79 85 84 83 87 78 75 74 78 82 80 88
68 68 73 74 70 72 77 84 86 85 83 82 82 82 81 81 82 85 83 85 87 94 92 93 93 92 91 93 89 89 88 89 90 96 85 82 80 80 82 84 85 89 97
75 76 74 76 76 69 70 74 74 78 78 80 80 82 85 86 87 88 90 94 96 96 93 93 94 94 94 95 95 95 96 94 97 97 93 86 90 92 91 96 89 96 96
82 79 77 77 76 73 73 78 80 79 79 81 84 86 93 90 91 91 93 93 92 92 91 90 92 94 92 87 86 90 96 96 95 96 97 97 97 97 93 97 95 96 97
77 75 76 77 80 84 89 90 90 90 90 90 92 94 95 94 91 92 87 83 87 86 86 86 86 86 84 83 83 86 88 91 97 98 98 97 97 96 95 95 94 96 96

GFSMW_sfc_rhum_036.txt.gz
RH
70 72 80 83 91 95 96 96 97 98 96 98 99 99 98 98 97 96 83 87 81 77 81 82 80 77 74 75 72 77 73 82 78 73 73 74 72 68 65 61 54 52 51
77 72 86 88 89 93 95 96 95 97 92 92 97 96 97 97 96 86 77 83 79 77 75 79 78 75 77 78 79 77 82 86 81 77 81 81 72 69 66 63 55 57 55
81 76 85 85 84 92 94 93 94 96 89 90 97 97 90 89 88 84 80 80 78 76 77 78 80 80 79 79 84 83 79 81 83 80 76 80 79 81 72 65 59 56 58
71 78 80 87 88 90 92 93 95 96 90 93 91 94 92 92 88 84 81 81 78 75 70 68 72 74 78 76 78 77 84 82 85 79 76 79 77 79 84 71 64 62 56
57 72 77 79 86 93 95 95 94 94 88 88 88 94 95 96 95 84 83 72 70 66 65 70 72 75 78 74 73 76 82 88 86 84 87 85 85 81 82 84 68 63 62
57 63 69 80 88 94 95 96 95 93 91 90 94 94 94 93 92 91 76 72 72 71 67 65 69 70 69 70 77 84 83 89 89 89 89 85 84 82 80 82 79 76 70
54 65 71 82 92 94 95 96 95 93 96 94 96 95 91 87 81 80 74 71 70 73 67 63 68 66 64 70 73 78 79 84 89 88 90 90 87 82 80 82 84 81 72
56 59 66 72 86 92 95 95 95 94 97 97 97 96 91 88 86 84 74 73 66 69 61 64 70 76 64 62 63 70 76 83 91 90 93 92 92 91 85 82 88 91 85
62 61 74 81 86 94 94 95 94 92 95 95 98 94 91 93 88 82 76 66 62 59 68 80 73 65 60 60 64 73 75 86 92 94 93 93 92 94 92 91 95 97 91
84 86 92 93 92 93 93 95 94 95 93 95 95 91 88 88 87 77 70 64 62 58 73 68 60 62 60 62 67 72 80 89 88 88 90 90 90 92 96 97 96 95 94
90 93 94 95 94 94 96 97 96 90 85 82 83 85 86 88 84 76 70 60 59 62 66 58 61 61 61 63 70 74 78 80 82 83 87 84 88 94 96 96 93 91 95
88 92 94 96 98 97 96 96 92 82 82 86 86 87 84 79 75 65 51 57 55 62 55 64 62 60 62 66 71 74 70 79 82 80 80 85 81 94 94 93 88 76 72
88 90 93 94 92 93 92 90 86 80 84 83 82 83 71 69 56 53 53 58 61 65 65 63 62 63 66 65 69 72 73 78 81 78 81 79 79 86 86 80 77 70 59
81 89 91 91 88 88 91 90 90 84 82 80 78 72 77 59 59 62 64 66 63 64 65 63 65 66 64 67 68 68 76 81 81 81 83 82 83 82 79 75 73 65 68
82 83 86 89 88 90 90 92 92 88 87 79 74 74 69 70 74 73 70 72 67 64 63 64 72 76 78 64 72 73 79 83 84 84 84 82 77 71 69 62 67 67 72
70 71 73 82 85 88 91 91 87 84 83 81 77 77 80 77 79 75 71 68 69 76 82 84 86 89 66 73 80 82 83 82 80 78 76 68 67 72 74 75 64 67 79
69 69 82 87 84 84 88 90 88 86 82 82 80 79 76 67 71 74 74 81 88 90 90 93 88 82 73 78 82 86 87 82 80 77 72 67 56 71 70 76 77 76 71
70 74 80 81 83 88 86 83 79 77 74 74 73 72 72 79 81 85 90 93 93 95 96 89 84 77 74 82 85 88 90 83 79 76 74 72 67 71 75 78 76 68 65
79 81 79 77 74 71 69 69 71 71 74 80 82 81 85 88 90 93 95 96 96 92 88 80 77 80 81 82 84 89 93 82 76 70 73 73 72 71 73 78 75 70 68
79 81 80 78 77 77 71 75 81 85 92 92 89 88 89 90 93 95 93 91 90 86 76 78 80 80 87 82 84 88 96 88 79 75 75 79 74 76 78 88 85 87 74
83 82 82 86 87 82 80 92 94 98 97 96 94 92 91 93 93 92 91 89 88 86 88 86 86 85 85 84 82 85 96 92 87 80 76 78 81 82 76 78 88 86 75
83 82 84 89 90 91 90 96 96 94 92 90 89 87 86 82 78 87 89 88 88 89 89 92 89 91 88 84 84 86 89 92 93 87 84 85 80 92 81 80 82 80 90
83 79 81 82 81 81 82 88 87 80 80 82 83 84 83 83 86 89 89 88 89 96 92 92 93 90 91 93 84 86 89 91 96 91 87 86 91 95 95 84 82 87 94
84 81 78 79 82 76 73 76 78 80 81 84 87 89 89 90 89 90 92 95 96 96 92 93 93 90 88 93 91 91 94 94 95 96 92 92 94 95 97 93 93 93 93
85 78 76 78 80 81 87 90 92 89 92 92 93 94 95 94 95 92 94 94 93 92 90 90 91 91 90 83 84 86 91 94 93 98 95 98 98 97 95 95 96 96 96
78 76 77 84 90 86 93 95 94 94 94 92 96 98 98 98 95 97 93 84 86 87 87 88 91 88 86 84 86 85 97 96 98 98 98 97 96 96 94 95 96 95 96

GFSMW_sfc_rhum_039.txt.gz
RH
61 60 63 64 63 68 72 73 79 83 80 85 85 80 85 87 88 84 81 76 66 63 64 59 59 55 52 53 55 53 53 49 52 48 45 47 48 46 38 35 32 32 32
66 62 64 67 67 64 71 78 78 80 76 74 73 69 74 79 76 79 72 71 67 61 60 60 56 55 54 59 58 55 52 52 54 45 46 41 45 44 44 40 37 41 33
65 62 65 67 67 67 71 76 77 78 76 73 73 75 72 72 79 72 64 66 63 58 59 60 57 58 55 52 55 55 56 48 56 59 42 41 38 47 47 49 40 45 38
58 59 61 66 70 68 72 74 78 77 76 78 73 75 72 71 72 66 58 60 62 60 55 57 60 56 51 54 53 52 54 56 50 57 50 56 51 43 44 44 44 44 41
53 57 58 58 62 71 79 78 76 76 75 78 75 84 78 78 80 67 68 66 64 60 55 54 55 54 49 56 59 66 68 68 71 49 55 58 55 57 51 44 41 39 38
49 50 54 57 59 72 79 82 79 78 79 84 82 81 79 81 79 71 67 63 58 55 54 49 51 52 52 57 71 84 87 78 58 55 56 49 48 46 49 49 47 49 48
44 47 51 58 62 76 80 81 78 88 90 87 85 86 85 78 75 72 73 74 64 58 58 52 56 51 52 66 82 81 71 62 58 61 54 56 55 53 53 54 50 53 44
44 44 45 50 62 72 76 79 78 83 93 90 87 84 80 82 78 77 78 71 59 58 54 53 52 54 57 59 71 67 59 59 60 63 63 56 57 58 57 54 59 60 49
44 44 44 51 59 71 78 80 77 76 90 93 88 86 84 82 81 82 78 72 63 56 58 57 59 61 67 61 60 57 56 61 65 66 68 63 54 59 57 60 61 70 78
44 50 50 55 60 67 72 81 76 73 76 84 87 90 85 80 81 83 76 68 64 58 58 62 66 60 53 67 53 51 54 59 62 59 63 62 56 58 58 58 62 70 82
48 53 57 65 66 69 73 76 73 71 76 80 84 86 85 85 85 87 77 72 66 55 52 62 62 63 49 49 50 54 54 58 58 61 62 61 60 59 58 65 64 64 71
44 55 64 70 77 76 76 79 81 80 78 79 84 84 83 86 86 85 80 71 63 53 51 58 61 61 49 49 51 53 62 58 58 57 59 59 50 62 61 62 64 59 54
52 61 68 71 75 79 82 81 80 79 75 73 73 74 77 80 82 82 73 64 56 53 64 62 61 54 50 50 56 76 63 56 56 56 58 56 59 59 57 60 57 53 50
54 63 70 71 72 75 75 76 78 76 73 70 68 72 74 72 71 64 59 62 62 62 57 62 66 58 56 61 79 70 60 58 56 60 62 58 59 58 56 54 54 52 52
61 65 67 69 69 71 72 74 74 71 67 65 62 66 64 59 58 60 72 73 70 64 63 62 73 79 81 82 79 66 62 61 60 63 61 62 63 72 65 52 52 49 46
64 64 60 64 70 72 70 73 71 69 65 64 62 62 65 67 72 74 77 75 71 74 76 84 86 90 86 87 86 76 60 60 62 58 58 59 74 74 80 77 69 52 49
63 67 71 74 74 73 75 73 71 69 66 66 64 64 65 69 74 75 79 87 86 85 91 93 90 85 81 88 84 85 62 61 59 59 56 52 47 62 48 67 80 76 71
64 68 66 66 66 66 67 67 63 64 64 62 61 61 65 75 79 83 83 89 90 91 90 83 83 82 78 82 83 86 59 61 62 61 58 57 54 53 52 50 52 52 53
67 67 64 63 62 62 60 60 61 62 64 67 69 70 74 75 78 90 91 83 85 83 85 84 88 77 66 80 81 78 63 64 64 60 59 58 56 63 71 58 58 53 51
65 65 64 61 62 64 62 67 70 71 74 73 72 70 70 72 76 80 84 86 86 83 75 66 65 71 64 74 82 76 68 70 67 64 61 76 62 71 79 70 72 69 50
68 66 64 68 69 68 69 74 77 82 77 78 79 82 84 89 87 80 70 68 67 69 72 72 69 66 67 64 81 83 72 74 71 68 65 64 78 81 80 79 79 87 60
68 66 71 75 74 70 73 83 87 82 77 78 74 66 63 61 60 65 64 64 65 69 71 85 72 69 70 77 79 85 85 74 88 78 70 74 81 82 84 81 93 96 82
67 67 69 72 68 64 62 65 65 58 59 61 63 64 65 64 63 62 64 62 64 70 73 72 76 70 70 70 82 86 87 88 90 84 83 86 86 85 84 92 98 97 95
65 62 64 67 71 67 68 66 66 64 66 70 71 68 66 64 61 57 58 60 67 72 72 75 77 78 77 77 72 76 77 82 90 89 80 86 88 88 90 95 94 94 94
65 64 67 72 75 74 76 76 72 65 65 67 66 66 66 63 56 54 61 63 59 71 70 68 72 86 88 79 83 89 90 96 95 98 99 98 96 94 91 88 92 94 92
68 68 73 74 74 74 72 68 63 57 57 58 58 66 63 63 55 53 52 68 71 73 73 76 81 83 81 78 77 77 81 83 92 98 98 98 99 92 84 86 83 87 93

GFSMW_sfc_rhum_045.txt.gz
RH
46 49 48 46 46 47 49 48 54 55 64 63 48 42 41 38 37 39 44 49 52 56 56 47 53 54 48 49 50 47 45 37 33 34 37 36 40 40 33 30 28 28 28
42 48 46 40 45 43 44 46 47 49 58 60 49 40 38 34 36 40 54 61 56 54 54 53 52 55 48 52 54 49 42 37 36 43 44 50 44 39 38 32 31 37 32
31 40 42 41 40 41 43 42 43 47 48 45 44 41 37 37 38 41 47 63 59 52 54 54 52 53 50 52 54 49 46 39 42 47 54 64 50 35 34 42 37 39 36
26 29 34 41 42 42 41 42 42 42 52 47 48 46 39 41 43 51 57 58 64 58 51 51 54 55 52 52 52 43 44 43 49 52 44 51 45 41 38 34 40 39 40
24 27 29 29 34 41 42 45 42 41 42 45 46 50 47 42 41 45 58 64 57 60 55 54 58 60 53 52 52 46 47 46 56 51 57 46 43 44 46 46 34 32 28
22 24 26 27 28 32 42 47 44 42 42 44 48 52 54 53 55 66 60 54 56 60 59 53 60 63 60 54 48 48 64 60 60 66 45 41 38 38 40 40 38 36 32
21 22 23 26 29 32 39 43 42 40 43 51 63 62 65 70 81 81 73 66 66 66 64 61 66 67 67 59 50 69 69 74 69 65 46 36 39 37 36 39 40 38 32
21 22 20 22 26 31 35 42 41 43 41 58 73 81 73 81 84 91 91 84 82 80 69 71 73 69 65 66 72 67 66 76 71 66 46 42 39 42 40 40 40 45 40
16 19 20 21 23 28 36 45 46 43 43 60 89 89 73 74 78 83 81 86 83 72 71 76 70 67 65 66 63 65 62 61 65 66 62 55 55 50 40 38 39 49 57
17 17 18 21 23 26 33 45 46 46 51 72 71 70 72 71 73 78 81 81 72 69 71 69 65 58 54 63 66 59 52 62 70 68 72 61 50 41 38 38 41 40 46
21 22 22 21 22 25 29 37 44 44 54 60 64 62 61 68 79 83 84 79 76 71 63 60 60 64 67 68 64 60 57 58 71 77 81 66 52 46 44 45 40 40 39
16 20 25 28 30 32 32 38 44 45 42 65 67 66 66 64 83 85 84 82 78 69 61 63 64 69 65 67 64 61 55 59 82 84 76 64 44 53 53 50 48 44 42
16 21 28 32 34 36 38 41 44 43 41 43 59 72 81 84 89 87 86 81 79 72 67 67 67 66 65 62 68 68 85 88 78 79 75 63 56 56 53 52 49 41 34
15 19 26 31 34 41 44 47 49 48 48 48 50 59 73 76 78 81 82 82 79 77 73 69 74 66 72 67 72 82 83 69 66 80 74 66 60 58 55 49 49 41 46
18 20 27 31 38 45 47 51 55 56 53 52 53 66 64 63 68 71 71 71 70 68 68 70 65 73 81 78 84 70 57 72 76 82 70 59 60 68 66 49 53 48 44
26 31 32 36 43 48 50 54 56 57 54 53 56 55 54 52 55 55 59 60 60 61 64 77 81 83 67 83 87 82 72 80 81 84 64 48 53 58 73 74 78 71 58
33 36 39 43 46 49 51 54 52 51 50 50 50 51 52 53 55 51 53 56 62 62 74 74 67 68 59 89 91 94 81 84 80 64 49 41 31 47 37 61 79 80 82
38 41 41 43 44 43 44 46 44 46 47 48 50 51 53 55 53 55 57 62 65 66 67 63 58 61 70 91 91 93 81 64 53 48 43 43 43 44 49 49 52 55 57
36 36 37 39 41 41 41 42 43 44 46 48 50 50 52 53 54 58 64 64 65 65 71 78 73 74 66 85 92 86 56 52 51 43 42 42 45 56 67 56 62 57 56
35 37 38 38 40 40 40 42 44 45 48 49 48 48 50 52 58 66 69 70 70 64 56 53 50 59 48 74 86 72 60 64 62 54 49 61 57 65 70 64 63 68 60
36 39 38 40 41 40 41 44 46 48 47 49 54 57 58 62 59 53 45 42 40 42 52 53 51 47 50 51 81 80 68 78 82 75 71 66 74 82 86 87 75 71 64
39 37 42 44 42 40 43 46 51 52 53 57 57 48 38 31 32 37 38 36 40 49 54 59 56 55 54 71 73 79 78 74 72 71 71 71 77 81 81 85 94 98 89
37 39 42 47 45 44 47 52 53 51 50 42 37 36 35 34 34 37 41 36 38 44 49 47 53 47 49 48 77 69 70 66 69 67 70 73 73 75 85 89 95 98 96
37 38 45 49 51 45 44 47 45 39 39 40 40 38 38 37 32 27 26 30 44 48 46 48 50 50 54 56 63 63 62 64 64 67 71 75 81 81 79 82 81 91 96
38 43 47 48 45 42 42 38 36 36 35 37 37 38 36 29 28 28 33 43 55 58 56 59 57 74 76 69 72 71 68 72 70 83 80 79 74 72 69 66 65 73 89
44 44 46 47 44 43 42 39 36 33 37 37 37 46 45 40 28 27 43 70 63 66 70 66 68 68 68 68 69 69 68 68 71 72 73 84 88 84 78 87 90 86 99

GFSMW_sfc_rhum_048.txt.gz
RH
54 55 52 60 60 60 61 58 58 63 76 77 66 66 60 60 58 55 54 66 65 73 79 81 78 82 75 74 74 72 66 60 55 55 60 64 64 58 56 54 51 44 42
57 52 52 52 56 58 59 62 63 65 69 74 67 60 57 53 52 55 56 68 72 70 73 78 75 79 77 75 76 73 72 70 65 68 71 76 70 68 61 59 51 52 49
53 56 53 53 53 60 62 61 58 58 61 69 62 58 54 56 52 54 70 74 73 72 71 75 78 79 78 80 80 77 73 70 69 65 74 79 77 64 67 66 61 62 62
47 52 54 54 56 54 55 54 53 53 54 63 66 62 52 52 51 59 64 69 76 76 69 70 76 77 82 79 80 70 74 72 75 79 62 64 68 70 69 67 66 64 55
32 47 46 45 45 48 52 53 51 50 52 55 62 64 62 58 59 55 73 75 80 79 77 76 79 83 83 82 79 76 76 74 76 72 74 70 69 74 74 78 66 66 60
29 32 37 40 41 44 50 53 50 48 51 58 60 73 72 64 68 77 82 84 82 80 83 74 81 83 83 82 78 71 70 79 75 71 67 66 64 60 66 69 69 64 56
27 29 32 33 39 46 52 53 53 50 52 62 62 65 73 74 74 77 88 96 99 98 88 81 83 87 82 80 74 76 84 79 82 77 69 66 58 59 58 61 66 64 54
26 27 29 33 33 40 49 54 52 53 50 57 69 70 67 80 80 80 96 94 93 91 88 90 86 88 79 78 83 85 87 86 87 73 72 69 77 69 62 64 67 76 64
24 25 26 31 34 36 43 52 49 49 49 57 72 77 77 82 86 92 91 94 92 92 90 92 85 80 76 78 82 87 83 83 83 72 76 76 72 74 66 65 62 71 87
22 23 24 28 29 34 40 49 50 47 48 53 75 71 72 82 84 88 91 90 91 89 87 84 80 77 73 78 83 85 81 74 74 78 77 78 77 74 70 63 64 67 76
25 26 25 26 27 29 35 46 48 47 53 57 75 79 77 77 84 89 89 90 91 81 80 78 76 72 72 82 83 76 70 69 79 89 91 90 84 75 69 70 68 68 65
20 26 28 30 30 32 35 47 50 50 68 70 76 77 78 79 90 93 94 94 84 79 75 74 73 72 81 81 79 70 63 83 90 92 94 85 66 76 70 74 70 69 67
18 22 30 34 36 39 40 43 52 53 71 61 73 76 82 89 94 97 95 93 91 88 78 76 75 77 79 76 72 77 86 91 91 91 85 83 82 79 75 68 72 68 54
18 19 29 34 39 44 46 50 55 56 60 71 78 89 92 93 92 92 91 90 88 84 81 82 83 79 77 84 83 90 88 86 86 80 82 82 82 79 74 69 72 65 70
17 19 24 35 42 50 53 53 65 66 69 72 77 88 88 85 88 89 89 87 86 83 79 79 80 82 82 78 85 79 83 82 80 84 80 79 80 80 77 64 73 76 75
16 21 23 33 45 48 54 61 64 66 65 71 72 71 73 78 84 85 84 80 76 74 75 78 84 87 72 89 86 82 79 80 84 88 82 82 79 75 80 78 75 68 69
26 31 32 43 50 54 60 64 64 62 62 63 61 61 63 65 68 64 66 72 78 81 85 85 85 82 76 87 89 89 85 88 88 87 86 77 45 62 58 65 73 82 82
32 38 45 52 58 57 58 60 56 60 59 58 58 59 61 60 61 62 68 75 79 83 84 82 76 76 79 91 91 92 89 90 88 81 70 68 64 64 68 70 75 69 68
41 44 45 50 52 52 53 51 52 51 54 57 58 58 59 60 63 68 74 74 74 74 80 82 84 85 82 90 91 93 86 75 76 64 66 68 70 75 79 80 82 72 66
38 42 44 46 48 48 47 49 51 53 55 56 55 55 57 61 68 74 76 80 81 78 73 74 76 68 68 89 84 77 88 89 94 85 71 75 74 81 83 92 92 93 94
37 40 42 44 46 44 46 49 51 54 51 53 56 59 63 69 68 71 72 69 65 65 75 69 68 63 75 80 82 78 88 91 88 85 82 80 76 75 74 73 73 76 79
37 39 44 46 46 44 46 49 53 52 57 62 66 64 61 48 47 55 54 49 61 72 77 80 83 86 82 80 77 71 71 74 82 78 78 77 74 74 75 77 76 76 81
40 39 43 48 48 44 46 52 58 58 62 60 50 42 39 39 42 53 56 57 61 72 80 82 88 86 86 89 74 67 67 69 81 77 76 72 74 78 80 80 80 80 81
39 40 47 51 54 50 49 55 56 54 48 45 46 46 48 45 44 35 38 58 76 82 82 84 84 88 84 88 82 78 80 76 76 77 78 81 82 82 79 78 76 90 91
39 44 52 54 54 51 53 51 48 44 42 46 44 49 52 44 41 49 55 73 63 75 84 83 83 94 94 85 74 73 78 82 77 82 84 82 84 80 78 76 76 77 85
45 48 52 54 49 49 48 45 43 41 46 47 52 70 67 58 41 48 55 73 69 72 69 67 75 85 70 66 67 66 66 66 69 83 84 89 89 87 82 81 82 81 82

GFSMW_sfc_rhum_051.txt.gz
RH
73 81 79 82 82 86 83 82 82 74 76 81 67 62 61 68 72 74 64 72 77 81 83 92 86 92 83 81 79 79 71 64 60 57 62 66 66 60 60 59 53 48 44
71 69 76 79 78 81 78 76 73 71 69 84 50 50 61 70 66 65 67 68 77 79 87 90 90 90 90 86 84 76 76 69 65 62 81 78 75 75 65 66 58 57 52
71 67 74 73 70 74 71 64 61 62 63 77 69 59 63 69 71 73 66 67 76 82 85 87 92 93 95 92 87 81 71 73 75 70 76 84 83 76 74 71 68 61 64
62 60 66 71 66 66 65 61 56 55 59 70 72 66 72 66 60 64 72 85 80 82 82 84 87 91 94 92 92 83 80 72 68 79 68 74 72 70 72 66 66 71 64
63 59 56 61 61 61 62 63 59 58 60 68 68 78 81 63 64 58 77 82 92 90 89 91 94 91 89 93 91 85 79 81 80 78 76 77 74 72 70 80 65 72 72
61 58 53 52 54 58 64 64 64 64 62 65 66 74 83 79 68 76 73 91 95 96 93 94 95 92 96 94 90 83 81 84 82 76 74 75 75 71 77 80 78 66 63
53 59 59 58 55 56 59 61 62 63 60 63 63 72 84 79 71 88 80 93 94 98 97 96 96 96 94 89 86 83 85 86 89 90 91 84 79 70 72 72 76 66 69
43 56 54 54 54 54 53 57 58 58 57 62 66 66 71 81 84 86 94 90 91 93 93 95 93 92 91 86 85 89 90 91 94 90 90 91 78 74 67 69 71 85 78
34 41 46 48 46 49 50 56 54 53 55 61 69 70 73 73 83 92 95 93 96 96 96 96 94 90 84 83 87 89 91 89 92 92 92 81 77 80 80 76 75 83 88
32 34 36 40 41 44 47 54 54 56 54 63 73 68 68 92 94 96 97 96 96 96 96 96 93 84 81 83 85 87 86 86 89 85 85 88 89 88 87 85 75 76 84
29 40 36 38 35 36 46 56 62 70 64 61 61 72 80 93 94 95 96 96 96 96 96 93 85 82 82 84 84 83 82 84 90 91 88 88 88 92 89 84 80 79 79
31 32 36 42 46 41 60 65 68 81 73 69 75 80 88 93 96 97 95 96 97 94 90 85 82 79 81 85 83 82 74 82 91 93 88 84 73 86 89 89 84 84 74
28 37 40 41 46 52 56 61 73 71 68 70 80 94 96 91 95 97 98 97 94 87 84 84 83 82 85 83 79 75 86 93 92 88 89 85 86 89 87 84 82 78 66
22 41 46 46 49 54 65 66 72 73 73 75 91 97 97 97 97 97 97 96 93 90 88 85 84 86 84 80 82 89 92 90 87 87 85 88 89 88 86 88 91 83 91
23 28 46 53 58 65 79 80 87 87 87 92 96 98 97 95 94 94 94 92 89 86 88 85 86 84 85 85 90 87 89 86 84 84 84 87 87 86 90 86 91 92 89
20 20 30 56 62 69 81 78 84 89 89 94 96 91 90 90 92 93 92 90 88 85 84 86 89 90 79 96 90 84 86 80 81 90 86 85 88 89 88 87 87 90 90
26 31 40 60 65 76 76 85 83 82 83 85 85 86 86 89 90 88 84 82 89 92 94 93 91 88 86 89 88 89 90 89 89 91 90 91 75 79 78 81 82 82 80
40 48 67 79 79 78 77 76 72 75 75 74 76 73 73 74 72 74 80 90 93 92 94 93 90 90 83 91 90 91 90 93 92 93 92 87 85 83 82 88 90 86 83
57 70 77 76 80 76 73 71 71 69 70 74 74 70 69 70 76 81 87 89 91 93 92 92 93 87 84 90 93 94 94 88 89 83 82 79 82 84 76 78 78 68 65
61 66 69 69 71 72 67 68 69 70 71 70 68 66 69 74 81 84 87 90 87 82 89 88 88 90 90 87 87 87 95 89 94 84 79 80 78 79 77 76 78 84 77
58 62 63 67 67 62 62 66 68 72 68 68 71 76 78 82 84 83 86 88 88 85 87 83 86 83 84 82 77 75 84 93 93 88 86 85 75 69 67 73 85 88 83
57 58 63 66 65 62 61 68 72 70 70 76 78 76 75 70 75 86 84 74 76 83 88 90 95 92 89 78 73 70 71 72 87 84 87 90 69 69 78 84 83 82 88
59 58 63 66 66 63 60 68 74 73 73 75 78 78 68 65 60 60 72 77 82 82 85 84 92 96 94 90 73 68 68 72 88 87 76 72 75 79 87 75 72 83 84
58 61 65 69 70 65 63 70 72 70 72 64 56 59 58 61 57 58 66 72 82 84 84 84 89 93 92 90 83 78 88 83 79 82 84 85 87 92 88 81 76 80 82
57 62 68 72 72 68 69 68 70 60 51 55 59 62 65 61 66 71 66 70 77 80 84 90 87 94 96 81 72 71 79 91 80 90 95 93 92 82 83 80 79 81 81
65 65 69 68 68 67 69 68 61 57 62 60 64 77 75 64 56 67 68 72 69 69 68 75 83 82 74 65 64 63 64 64 69 93 97 97 97 92 84 89 86 84 85

GFSMW_sfc_rhum_054.txt.gz
RH
92 89 81 82 82 84 84 80 83 84 83 79 73 72 73 71 73 76 73 73 81 77 82 93 95 95 93 89 84 83 80 72 69 60 63 65 69 68 65 60 58 58 71
95 89 91 85 86 87 85 80 79 79 77 78 67 65 64 73 78 74 74 76 81 83 87 92 94 92 93 87 89 83 82 75 68 62 72 66 75 79 71 70 63 59 56
91 91 88 90 86 87 90 86 82 74 74 83 70 66 70 80 80 81 79 76 80 83 87 91 94 95 94 91 93 88 80 75 72 67 67 81 80 77 74 76 74 65 67
76 82 85 86 86 86 80 78 77 72 70 75 76 57 54 57 61 76 73 74 82 85 84 87 94 96 95 94 93 92 89 81 77 78 69 70 70 69 65 65 74 70 60
73 76 79 78 77 77 77 73 70 69 64 64 76 70 69 64 69 78 77 74 91 86 84 88 95 96 95 93 95 94 92 88 84 77 84 79 78 72 71 78 67 67 71
69 68 68 68 72 72 72 68 66 66 62 61 73 77 76 77 78 81 82 84 84 94 92 88 94 96 95 95 96 96 94 88 83 85 88 91 88 88 92 87 78 71 63
68 67 67 69 68 68 69 69 63 62 60 60 67 71 75 76 82 82 80 82 88 97 94 91 94 94 96 95 95 94 93 87 90 92 93 93 91 86 82 74 71 71 64
65 64 62 62 64 64 64 66 66 60 58 61 68 68 66 74 82 83 84 83 85 88 93 94 95 97 97 96 95 94 91 90 93 92 92 93 92 81 78 75 79 82 76
54 63 60 58 58 62 66 66 64 62 61 64 70 72 73 72 83 84 89 90 88 95 96 95 97 96 95 93 89 89 90 89 93 93 93 90 84 84 82 82 81 89 95
46 53 59 61 56 56 63 70 64 65 63 66 68 70 70 75 76 91 90 92 96 97 96 97 97 96 94 91 87 89 90 89 91 92 93 91 89 89 88 88 87 82 84
40 46 53 56 55 55 62 66 70 66 66 66 66 70 73 78 95 92 94 97 97 98 97 96 96 95 92 92 87 87 87 87 93 93 90 92 92 91 87 88 84 82 82
36 36 41 49 52 54 58 61 64 67 65 64 64 75 78 91 95 98 98 97 97 96 96 95 95 92 90 89 87 85 85 89 91 91 91 93 86 86 86 89 93 94 92
38 41 44 42 43 46 51 58 64 64 67 70 76 82 89 92 96 97 96 97 97 98 98 96 94 89 88 86 85 82 84 90 89 90 90 89 87 86 88 93 96 94 84
35 42 50 53 51 47 47 52 67 66 67 72 84 88 94 92 91 90 96 98 97 96 96 94 90 89 89 86 80 85 90 90 88 90 89 87 87 90 92 93 95 94 97
27 44 46 55 65 74 60 52 63 76 76 78 79 95 95 94 95 91 97 97 96 94 91 91 92 90 87 84 87 84 89 90 92 90 84 86 87 90 91 93 96 97 98
27 34 46 56 70 81 77 75 77 80 80 84 92 96 98 97 98 97 96 95 93 93 89 91 91 92 86 96 92 88 91 89 86 86 86 89 88 90 90 83 83 86 93
27 29 41 60 76 84 86 94 95 96 93 96 96 96 95 96 97 95 93 94 94 95 95 94 91 90 89 96 93 91 86 87 90 93 90 87 74 84 86 87 86 87 85
26 30 55 78 87 89 91 93 92 93 94 94 93 93 94 95 92 88 88 89 91 90 91 91 87 88 90 92 91 92 93 95 94 94 90 90 86 91 84 84 81 73 72
46 68 83 90 92 90 86 85 87 85 88 89 89 87 85 87 88 88 89 88 93 94 94 92 93 92 93 92 93 94 95 93 92 82 82 83 84 74 71 80 80 79 80
72 87 90 91 90 88 80 81 83 84 85 84 82 80 83 85 88 91 93 94 91 91 92 94 93 94 94 98 94 93 95 88 89 81 76 73 77 72 67 81 90 94 91
77 83 82 84 85 79 76 80 81 82 77 74 75 79 82 85 86 89 88 89 92 94 96 95 90 88 88 84 78 74 81 88 87 80 80 81 70 65 71 79 93 88 80
75 77 82 82 79 74 74 79 84 79 77 81 85 85 85 80 82 89 95 93 92 92 95 96 97 92 86 79 74 73 74 71 80 78 82 81 69 74 78 81 67 68 85
72 73 76 77 78 74 72 79 86 80 81 82 85 85 83 86 89 92 92 86 85 91 94 92 95 94 88 85 69 68 69 71 83 83 74 71 74 79 84 68 65 85 90
66 71 70 75 80 75 73 79 78 76 80 86 86 82 80 75 75 74 81 84 90 90 92 92 94 93 90 89 85 78 84 80 77 81 84 87 89 92 86 82 78 83 86
66 65 70 74 79 78 79 76 77 73 71 68 67 72 75 74 71 69 75 80 85 83 84 90 90 94 94 80 70 72 79 86 84 93 96 96 84 80 82 86 82 81 82
71 71 74 77 80 78 80 75 64 61 65 68 72 77 78 73 58 60 73 77 78 80 82 82 86 87 77 70 63 61 61 63 67 89 93 94 95 94 86 91 89 88 88

GFSMW_sfc_rhum_057.txt.gz
RH
95 95 81 84 85 83 85 86 93 93 91 72 86 80 77 73 73 77 71 77 83 84 90 94 95 95 93 90 85 86 85 84 78 65 65 67 66 67 66 63 68 61 72
98 96 81 85 88 85 84 83 83 86 84 73 60 65 67 69 72 71 72 72 79 82 86 92 96 95 94 91 93 88 89 85 75 68 65 68 70 82 76 72 64 64 69
98 94 85 88 87 89 85 83 80 76 73 72 72 70 64 68 75 74 78 76 76 80 87 91 95 96 95 92 93 92 88 90 81 70 70 80 80 72 72 74 69 68 71
92 96 88 92 91 85 84 81 82 80 79 80 77 69 60 56 71 78 78 76 80 82 87 90 94 95 95 95 92 92 92 92 86 82 80 77 79 75 76 71 70 74 64
88 95 94 94 87 84 95 89 84 78 74 81 82 78 77 69 69 79 82 84 86 88 89 92 94 95 96 95 96 98 95 94 94 90 90 86 83 90 92 84 68 72 72
82 83 86 86 88 90 93 91 87 82 74 76 85 87 77 78 80 84 92 90 90 92 92 92 93 94 96 97 98 97 96 96 97 93 93 91 94 95 93 88 82 74 66
77 79 86 87 83 88 89 85 83 82 76 73 72 82 85 78 76 78 87 90 93 94 92 93 96 94 94 96 96 96 96 98 96 92 88 92 91 88 86 87 83 76 67
67 74 74 77 77 78 81 81 77 77 73 74 71 70 76 79 75 75 83 92 89 88 92 95 94 93 97 98 98 98 98 96 95 90 92 95 92 87 82 79 81 87 78
66 68 70 69 70 73 75 77 73 70 68 70 71 68 70 72 74 78 82 88 92 90 94 94 94 96 97 98 98 98 97 96 94 95 95 93 91 85 82 81 79 88 95
61 66 65 68 67 66 70 73 69 65 62 63 64 62 65 71 66 73 83 92 92 97 98 98 97 97 98 98 98 97 95 93 95 95 93 93 92 92 92 90 90 89 93
52 60 64 62 63 64 70 74 71 68 66 63 60 61 65 71 74 78 81 94 95 94 97 97 97 98 99 98 96 95 92 90 92 93 92 92 91 94 95 94 92 92 86
44 48 55 61 62 62 67 72 77 74 70 64 62 66 68 72 78 81 89 94 96 93 93 94 97 98 98 97 96 94 86 88 93 94 92 91 89 92 90 90 88 89 90
46 46 51 57 62 62 62 66 71 75 72 72 70 74 79 79 82 86 91 92 90 95 97 97 98 97 96 94 92 87 91 90 91 90 89 90 89 90 89 87 90 91 86
38 45 49 52 58 60 62 64 69 70 71 71 73 77 80 83 84 88 90 92 89 95 98 98 96 95 94 90 89 90 92 91 90 90 89 90 88 89 89 90 92 96 98
36 46 48 47 49 55 58 59 63 68 69 72 71 74 81 89 89 90 90 95 97 97 97 98 98 96 94 91 88 87 90 90 94 92 88 88 88 92 92 91 96 96 97
29 33 45 50 58 54 52 54 58 66 71 73 75 79 90 93 93 94 96 98 98 98 98 97 97 97 91 96 92 88 91 91 92 94 90 89 93 85 84 83 82 86 92
28 30 43 47 51 57 65 66 63 77 85 80 86 93 96 96 97 99 98 98 98 98 97 97 94 94 93 95 94 94 90 91 91 90 90 82 72 84 82 83 76 76 74
31 32 35 54 58 86 92 96 96 93 90 91 96 95 97 98 98 98 98 98 98 97 97 97 95 94 95 97 95 94 91 94 94 92 89 82 87 81 80 74 70 68 70
32 32 41 74 89 93 97 97 99 97 97 98 98 98 98 98 98 98 98 97 97 97 96 95 95 94 98 96 95 93 93 89 85 85 86 82 80 70 65 74 77 84 82
45 69 87 94 95 97 96 96 98 97 97 96 94 93 93 93 94 94 94 94 91 92 90 91 90 94 96 96 94 90 93 90 87 78 73 73 75 66 66 88 94 93 84
78 92 93 93 94 94 92 96 96 97 90 87 86 88 90 91 90 90 89 89 92 96 98 97 96 94 93 93 91 84 83 86 83 77 79 81 67 67 76 80 86 79 85
86 92 94 95 93 88 87 93 94 90 85 86 87 85 84 84 85 88 90 92 96 98 97 96 93 87 82 81 79 75 74 73 79 78 82 82 69 75 76 75 64 68 84
87 90 90 92 91 88 84 90 93 87 89 89 90 88 88 90 89 95 97 97 96 97 96 90 92 89 82 80 73 70 69 70 79 79 74 70 75 74 76 64 67 81 88
85 86 84 86 88 85 84 87 86 85 87 93 92 88 87 87 85 84 89 93 92 93 90 90 92 91 87 88 86 82 81 80 77 80 80 85 86 83 86 82 75 79 83
79 81 86 86 87 85 86 84 84 83 88 85 81 83 82 79 80 79 79 83 83 86 90 91 88 94 93 83 78 80 85 91 85 93 92 86 84 81 82 84 81 80 79
81 82 84 85 86 85 85 83 80 75 78 81 82 84 78 74 69 72 80 85 86 86 86 85 86 85 75 72 75 82 79 68 78 89 90 93 94 90 80 85 83 82 82